Find Kosmos-2043

NORAD ID: 20237 Int'l Des: 1989-074 Owner: UNKS Country: SU operational
LEOCIRCULARPOLAR

Live Position

Loading 3D Globe...

About Kosmos-2043

Description loading...

Upcoming Passes

Passes for default location (London). Set your location on the main map for personalized predictions.

Altitude History

Loading altitude history...

Two-Line Element Set

1 20237U 89074F 26106.69065382 .00000021 00000-0 58710-4 0 9994
2 20237 82.5729 262.4734 0003804 17.4418 353.9274 12.63550646687133
Epoch: Apr 16, 2026 • Age: 21 hours

Current Status

Altitude 1422.0 km
Velocity 7.15 km/s
Sub-Earth Point -40.35°S, 148.17°W
Launch Date Sep 14, 1989
Age 36.5 years
Type other

Technical Details

Classification Payload
Mass 225.00 kg
Dry Mass 225.00 kg
Total Mass 225.00 kg
Length 1.60 m
Diameter 0.80 m
Span 7.00 m
Shape Cyl + Ant
Manufacturer NPOPM
Bus Type Strela-3
Phase Status In Orbit
Owner/State UNKS/SU

Most Searched